Weather History for Nassau, Bahamas

Change the Weather History Date:

Monday, February 17, 2014

  Actual Average Record
Temperature  
Mean Temperature 71 °F -  
Max Temperature 77 °F 79 °F 86 °F (2003)
Min Temperature 65 °F 63 °F 55 °F (2005)
Cooling Degree Days 6    
Growing Degree Days 21 (Base 50)    
Moisture  
Dew Point 60 °F    
Average Humidity 66    
Maximum Humidity 83    
Minimum Humidity 53    
Precipitation  
Precipitation 0.00 in 0.05 in - ()
Sea Level Pressure  
Sea Level Pressure 30.18 in    
Wind  
Wind Speed 4 mph ()    
Max Wind Speed 12 mph    
Max Gust Speed -    
Visibility 6.8 miles    
Events      
Averages and records for this station are not official NWS values.
T = Trace of Precipitation, MM = Missing Value Source: Averaged Metar Reports

Daily Weather History Graph

Daily Weather History Graph

Search for Another Location

Airport:

Trip Planner

Search our weather history database for the weather conditions in past years. The results will help you decide how hot, cold, wet, or windy it might be!

Date:

Astronomy

Feb. 17, 2014 Rise Set
Actual Time 6:42 AM EST 6:05 PM EST
Civil Twilight 6:19 AM EST 6:28 PM EST
Nautical Twilight 5:52 AM EST 6:55 PM EST
Astronomical Twilight 5:26 AM EST 7:22 PM EST
Moon 8:35 PM EST (2/17) 8:02 AM EST (2/17)
Length of Visible Light 12h 09m
Length of Day
11h 22m
Waning Gibbous, 93% of the Moon is Illuminated
Feb 17
Waning Gibbous
Feb 22
Last Quarter
Mar 1
New
Mar 8
First Quarter
Mar 16
Full

Hourly Weather History & Observations

Time (EST) Temp. Dew Point Humidity Pressure Visibility Wind Dir Wind Speed Gust Speed Precip Events Conditions
12:00 AM 69.8 °F 57.2 °F 64% 30.17 in 6.2 mi ENE 4.6 mph - N/A   Partly Cloudy
1:00 AM 70 °F 62 °F 68% 30.17 in 8 mi ENE 3.5 mph - -   Scattered Clouds
1:00 AM 69.8 °F 62.6 °F 78% 30.17 in 6.2 mi ENE 3.5 mph - N/A   Partly Cloudy
2:00 AM 69.8 °F 57.2 °F 64% 30.16 in 6.2 mi NE 3.5 mph - N/A   Partly Cloudy
3:00 AM 68.0 °F 57.2 °F 68% 30.14 in 6.2 mi Calm Calm - N/A   Partly Cloudy
4:00 AM 67 °F 62 °F 79% 30.15 in 8 mi Calm Calm - -   Scattered Clouds
4:00 AM 68.0 °F 62.6 °F 83% 30.15 in 6.2 mi Calm Calm - N/A   Partly Cloudy
5:00 AM 66.2 °F 57.2 °F 73% 30.15 in 6.2 mi Calm Calm - N/A   Partly Cloudy
6:00 AM 66.2 °F 57.2 °F 73% 30.15 in 6.2 mi NE 3.5 mph - N/A   Partly Cloudy
7:00 AM 67 °F 61 °F 74% 30.17 in 8 mi Calm Calm - -   Scattered Clouds
7:00 AM 66.2 °F 60.8 °F 83% 30.17 in 6.2 mi Calm Calm - N/A   Partly Cloudy
8:00 AM 71.6 °F 57.2 °F 60% 30.19 in 6.2 mi NE 6.9 mph - N/A   Partly Cloudy
9:00 AM 73.4 °F 55.4 °F 53% 30.21 in 6.2 mi Variable 1.2 mph - N/A   Partly Cloudy
10:00 AM 75 °F 64 °F 60% 30.22 in 9 mi North 9.2 mph - -   Scattered Clouds
10:00 AM 75.2 °F 64.4 °F 69% 30.22 in 6.2 mi North 9.2 mph - N/A   Partly Cloudy
11:00 AM 73.4 °F 57.2 °F 57% 30.22 in 6.2 mi NE 11.5 mph - N/A   Partly Cloudy
12:00 PM 75.2 °F 59.0 °F 57% 30.20 in 6.2 mi East 6.9 mph - N/A   Partly Cloudy
1:00 PM 78 °F 64 °F 54% 30.19 in 9 mi East 11.5 mph - -   Scattered Clouds
1:00 PM 77.0 °F 64.4 °F 65% 30.18 in 6.2 mi East 11.5 mph - N/A   Partly Cloudy
2:00 PM 75.2 °F 59.0 °F 57% 30.16 in 6.2 mi ENE 9.2 mph - N/A   Partly Cloudy
3:00 PM 75.2 °F 57.2 °F 53% 30.15 in 6.2 mi NE 11.5 mph - N/A   Scattered Clouds
4:00 PM 75 °F 64 °F 60% 30.15 in 9 mi East 9.2 mph - -   Partly Cloudy
4:00 PM 75.2 °F 64.4 °F 69% 30.15 in 6.2 mi East 9.2 mph - N/A   Scattered Clouds
5:00 PM 73.4 °F 57.2 °F 57% 30.16 in 6.2 mi East 9.2 mph - N/A   Scattered Clouds
6:00 PM 71.6 °F 57.2 °F 60% 30.16 in 6.2 mi East 6.9 mph - N/A   Scattered Clouds
7:00 PM 72 °F 63 °F 66% 30.18 in 9 mi East 6.9 mph - -   Scattered Clouds
7:00 PM 71.6 °F 57.2 °F 60% 30.17 in 6.2 mi East 6.9 mph - N/A   Partly Cloudy
8:00 PM 71.6 °F 59.0 °F 64% 30.19 in 6.2 mi East 4.6 mph - N/A   Partly Cloudy
9:00 PM 71.6 °F 57.2 °F 60% 30.20 in 6.2 mi East 6.9 mph - N/A   Partly Cloudy
10:00 PM 71 °F 63 °F 70% 30.22 in 9 mi East 4.6 mph - -   Scattered Clouds
10:00 PM 71.6 °F 62.6 °F 73% 30.22 in 6.2 mi East 4.6 mph - N/A   Partly Cloudy
11:00 PM 69.8 °F 59.0 °F 68% 30.20 in 6.2 mi East 5.8 mph - N/A   Partly Cloudy